Temperature
28 30 30 31 31 31 31 31 31 31 31 31 32 32 31 30 29 29 27 26 25 24 23 21 21 20 20 20 20 20 19 19 19 19 18 18 18 18 18 18 18 17 17 17
29 29 31 30 30 30 30 30 31 31 31 31 31 31 31 30 29 29 28 27 25 24 23 21 20 20 20 20 20 20 20 19 19 19 18 18 18 17 18 18 18 18 17 17
29 30 30 29 29 29 30 30 31 31 31 31 31 31 31 31 29 28 28 27 26 25 23 22 21 20 20 20 20 20 19 19 19 19 18 18 18 18 18 18 18 18 17 17
29 30 29 29 29 30 30 31 30 30 30 31 31 31 31 31 30 29 28 27 26 24 23 22 21 21 21 20 20 20 20 19 19 19 18 18 18 18 18 18 18 17 17 17
29 29 28 29 30 30 30 30 30 30 30 30 31 30 32 31 31 30 29 27 26 25 24 22 22 21 21 20 20 20 20 19 19 19 18 18 18 18 18 17 17 17 17 17
30 29 29 30 30 30 30 30 30 30 31 30 30 30 30 32 31 30 29 27 26 25 23 22 21 21 20 20 20 20 19 19 19 19 18 18 18 18 18 17 17 17 17 17
28 29 29 30 30 29 30 29 29 29 29 30 30 29 31 31 30 30 29 27 26 24 23 22 21 21 20 20 20 20 19 19 19 19 18 18 18 18 18 17 17 17 17 17
28 29 29 30 30 30 30 30 29 29 29 30 29 30 31 31 29 28 28 27 25 25 24 23 22 21 20 20 20 20 19 19 19 19 18 18 18 17 17 17 17 17 17 17
29 29 30 30 30 30 30 30 32 30 30 29 30 30 31 30 29 29 28 27 26 25 24 23 22 21 21 20 20 20 19 19 19 18 18 18 18 17 17 17 17 17 17 17
30 29 29 29 29 29 30 31 30 30 28 28 29 30 30 31 30 29 28 27 26 25 24 23 22 21 21 20 20 19 19 19 19 18 18 18 18 17 17 17 17 17 17 17
29 28 29 29 29 29 28 29 30 30 30 29 29 30 32 31 30 30 29 27 26 25 24 23 22 21 21 20 20 19 19 19 19 18 18 18 17 17 17 17 17 17 17 17
29 29 29 29 30 30 30 30 30 29 28 29 29 31 31 31 30 29 28 27 26 25 24 22 22 21 20 20 20 19 19 19 18 18 18 18 17 17 17 17 17 17 17 17
28 27 27 28 28 28 29 30 30 30 29 29 29 30 31 30 29 29 28 26 25 24 23 22 21 21 20 20 19 19 19 19 18 18 18 18 17 17 17 17 17 17 16 16
27 27 28 29 29 30 29 29 30 30 29 29 29 30 31 30 30 29 27 25 24 23 22 22 21 20 20 20 19 19 19 19 18 18 17 17 17 17 17 17 17 16 16 16
26 27 28 29 30 30 30 30 30 29 30 30 30 31 31 31 30 28 27 25 24 23 22 21 21 20 20 19 19 19 19 18 18 18 17 17 17 17 17 17 16 16 16 16
25 26 27 28 29 29 29 30 30 29 30 30 30 31 31 30 29 27 26 25 24 23 22 21 21 20 19 19 19 18 18 18 18 17 17 17 17 16 16 16 16 16 16 16
25 25 26 28 29 28 28 29 30 29 30 30 30 31 31 30 28 27 26 25 24 23 22 21 21 20 19 19 19 18 18 18 17 17 17 16 16 16 16 16 16 16 15 15
23 24 26 27 27 26 29 30 30 30 30 30 30 30 30 29 27 26 25 25 24 23 22 21 21 20 19 19 18 18 18 17 17 17 16 16 16 16 16 16 15 15 15 15
23 23 25 27 27 27 29 28 29 29 29 30 30 29 28 27 26 26 24 24 23 22 22 21 20 20 19 19 18 18 17 17 17 17 16 16 16 16 15 15 15 15 15 15
23 23 24 25 26 26 28 29 28 28 28 29 29 28 27 26 29 28 23 22 22 21 20 20 19 19 19 18 18 17 17 17 17 16 16 16 15 15 15 15 15 15 15 14
22 22 24 25 25 27 28 27 27 27 27 26 26 26 26 26 26 23 22 21 20 20 19 19 19 18 18 18 17 17 17 17 16 16 16 16 15 15 15 15 15 14 14 14
24 24 24 25 25 26 26 26 27 25 23 24 24 24 24 23 21 21 20 19 19 19 19 19 18 18 18 18 17 17 17 17 16 16 16 15 15 15 15 14 14 14 14 13
23 24 25 25 25 23 22 23 22 21 22 22 23 22 22 21 20 20 19 18 18 18 18 17 18 17 17 17 17 16 16 16 16 16 15 15 15 14 14 14 14 13 13 13
22 21 22 22 23 22 21 21 20 20 21 21 21 21 21 20 19 19 18 17 17 17 17 17 17 17 16 16 16 16 16 16 15 15 15 14 14 14 13 13 13 13 12 12
20 20 21 21 22 21 21 20 19 19 19 20 20 20 20 19 18 18 17 17 16 16 16 16 16 16 16 16 15 16 16 15 15 14 14 14 13 13 13 12 12 12 12 12
20 20 21 21 20 20 20 18 18 18 18 18 18 18 18 18 17 17 16 16 16 15 15 15 16 16 15 15 15 15 15 15 14 14 13 13 13 12 12 12 12 11 11 11
Wind_Speed
7 9 10 7 6 4 4 5 4 2 3 5 4 4 2 3 6 7 8 9 10 10 10 11 11 11 11 11 12 13 14 13 11 9 9 8 8 7 7 7 7 8 9 8
8 12 8 4 5 6 7 7 5 2 1 4 5 4 3 3 5 5 7 8 9 10 10 11 11 11 12 12 12 13 14 14 13 10 9 7 7 7 7 6 7 9 9 9
13 2 5 8 9 9 9 8 5 3 3 5 6 7 5 4 4 5 6 7 8 10 11 12 12 11 11 12 13 12 14 14 13 12 9 7 6 5 6 7 7 8 9 10
12 7 6 10 11 10 9 5 5 5 7 4 4 7 2 3 5 5 6 7 8 10 10 11 11 11 11 11 11 12 12 12 12 12 11 11 9 9 8 7 7 7 9 10
9 10 11 12 10 10 5 2 4 6 7 8 5 8 3 3 4 3 4 6 8 9 10 10 10 10 10 9 9 10 11 11 11 11 12 11 10 8 7 6 7 7 8 9
7 6 9 10 8 9 5 5 5 7 8 9 4 6 5 1 2 1 3 5 7 9 10 10 9 9 9 8 9 9 10 11 11 11 11 11 11 9 8 8 7 7 7 8
11 12 9 8 10 10 10 10 8 8 8 6 2 6 5 2 1 1 2 5 8 9 10 10 10 10 9 9 9 9 10 10 11 11 11 11 11 10 9 8 7 7 6 7
13 12 14 12 14 10 14 14 9 7 6 4 5 6 2 1 1 2 3 5 8 10 10 10 10 10 9 9 9 9 9 10 10 10 10 9 8 7 6 7 6 6 6 6
10 9 9 11 12 12 11 13 12 9 8 8 5 4 5 3 4 5 6 7 8 9 10 10 10 9 9 9 9 9 9 9 9 9 8 7 7 7 6 6 6 5 5 5
7 7 9 9 9 10 10 10 8 10 8 9 7 7 4 3 5 6 7 8 9 10 10 10 9 9 9 8 8 7 7 8 8 8 7 6 6 6 5 5 5 4 4 4
12 10 9 11 12 14 11 11 10 10 9 8 6 3 1 2 3 5 7 8 10 10 11 10 9 8 8 8 7 7 7 7 6 6 6 5 5 5 5 4 4 4 4 4
14 10 11 12 7 5 13 14 14 11 9 9 9 4 5 2 3 4 6 8 9 10 10 11 10 9 8 8 7 7 6 6 6 6 5 5 4 4 4 4 4 3 3 4
12 10 11 12 11 9 11 13 14 13 9 10 11 5 6 4 4 6 7 9 10 11 11 11 10 9 9 8 7 7 7 6 6 6 5 5 4 4 3 3 3 3 3 3
8 11 14 14 10 14 15 15 15 14 12 12 13 9 5 5 5 7 9 10 11 12 12 11 10 9 9 8 8 7 7 6 6 6 5 5 4 4 3 3 3 3 3 3
7 12 14 13 8 8 12 15 17 17 16 13 11 11 8 6 6 7 9 11 12 13 13 12 11 10 9 9 8 8 7 7 7 6 6 5 4 4 4 3 3 3 2 2
4 8 11 13 13 12 13 13 14 16 15 15 12 10 5 3 4 7 10 12 13 14 14 13 12 11 11 10 9 8 8 7 7 7 6 5 5 5 4 4 4 4 3 2
5 6 9 13 12 12 16 17 16 15 14 14 14 10 5 4 5 7 9 12 13 14 14 14 13 12 11 10 9 9 8 8 7 7 6 6 6 5 5 5 5 4 3 3
6 7 7 11 10 15 11 8 13 15 15 13 11 7 5 4 3 4 7 10 12 13 13 13 12 12 11 11 10 9 9 8 8 7 6 6 6 6 5 5 5 4 4 4
10 8 8 11 15 15 9 6 8 12 13 12 12 9 5 3 3 4 5 8 10 11 12 12 12 12 12 11 11 10 10 9 8 7 6 6 6 6 6 5 5 4 4 4
12 11 10 11 14 15 10 6 5 7 11 6 8 8 6 6 7 3 5 7 9 10 11 12 12 12 11 11 11 11 10 9 8 7 7 6 6 6 6 5 5 4 5 5
14 12 16 16 15 12 2 4 6 11 5 0 3 5 6 5 2 4 6 8 10 11 12 12 12 11 10 10 10 10 9 8 7 7 7 6 6 6 6 6 5 5 5 6
13 14 16 16 18 14 3 4 5 2 4 3 1 1 3 3 4 6 8 9 11 12 12 13 12 10 10 10 10 9 8 7 6 6 7 7 6 6 6 6 6 6 6 7
9 7 8 10 8 1 1 1 3 4 3 3 2 1 3 4 5 8 9 10 10 11 11 11 11 10 9 8 8 9 7 7 7 7 7 6 6 6 6 6 6 6 5 5
5 2 4 5 4 1 1 1 3 3 4 3 2 1 4 5 7 8 9 9 10 10 10 10 11 10 8 7 6 7 7 7 7 8 7 6 6 7 6 4 4 4 4 5
4 4 6 7 5 3 2 2 3 4 3 2 1 1 4 6 8 8 8 9 9 8 8 9 9 9 8 7 6 6 6 7 7 7 7 7 7 7 6 5 4 3 3 2
8 7 7 6 1 3 2 3 4 3 2 2 2 3 4 6 8 8 8 8 8 8 8 8 9 9 8 7 7 6 6 7 7 7 7 6 6 6 6 7 7 11 8 10
Wind_Direction
197 222 222 218 230 270 268 258 253 272 324 293 277 273 253 200 211 205 197 194 192 189 182 181 182 184 185 188 190 191 192 191 190 191 193 200 205 209 213 215 212 216 218 213
203 226 226 215 216 231 240 247 240 223 313 291 283 271 250 222 219 220 209 200 194 183 176 178 181 184 189 191 194 193 194 193 195 197 199 205 208 211 212 214 211 218 220 220
220 190 190 203 208 222 232 247 258 278 281 240 271 245 215 203 208 213 212 201 193 187 181 179 182 186 190 194 196 195 196 195 197 197 198 200 200 209 210 211 212 218 220 223
231 206 196 212 216 226 228 232 257 266 266 254 280 288 217 208 215 208 203 195 189 187 183 178 180 184 191 193 194 195 194 195 197 196 201 202 205 210 213 212 210 215 222 227
212 209 209 218 217 220 236 205 242 258 260 268 248 279 273 190 242 209 195 193 186 184 181 178 180 183 186 187 187 189 191 193 194 198 203 209 215 218 219 215 213 218 222 228
221 201 221 228 220 215 199 203 219 241 252 254 256 272 278 266 299 214 169 174 177 175 174 171 173 173 176 177 180 178 184 191 194 197 203 210 216 219 221 219 218 219 220 222
214 214 210 212 196 192 206 221 225 228 229 246 164 257 277 9 334 266 192 170 169 169 168 166 168 169 172 175 177 180 184 189 191 195 201 209 215 218 221 224 223 226 226 224
207 211 204 207 214 204 212 225 240 257 255 233 186 251 271 106 225 219 189 164 164 168 166 165 165 166 171 174 176 182 184 187 189 193 198 204 213 219 224 227 226 226 231 233
214 214 184 204 214 223 209 228 246 258 268 274 252 253 254 199 202 189 173 167 168 167 165 164 165 165 168 170 174 179 179 182 185 190 196 198 208 219 223 225 225 230 228 230
221 216 183 179 191 214 240 226 220 237 250 258 249 248 257 214 193 177 176 174 167 164 163 160 161 161 162 163 165 169 172 174 179 187 195 194 200 209 213 218 220 227 231 227
223 221 185 184 204 195 195 208 223 233 247 261 264 251 131 214 194 184 178 173 167 166 163 161 159 158 155 154 156 162 161 161 168 178 184 189 194 195 198 205 212 212 217 215
212 223 219 204 191 234 211 215 213 224 228 243 270 267 118 179 190 186 176 168 166 164 161 160 158 157 157 156 158 159 158 157 163 167 168 168 172 180 186 193 198 198 201 209
194 212 214 208 203 207 221 220 221 231 241 241 248 243 134 175 203 193 182 171 168 166 164 162 161 160 159 156 155 155 156 152 153 154 155 155 160 165 175 180 180 182 191 204
207 216 225 224 215 200 208 214 217 223 229 234 241 260 220 216 216 202 187 178 173 170 169 167 162 161 159 156 154 153 149 148 148 148 150 152 158 160 165 168 169 176 187 199
209 221 228 246 243 221 217 214 212 221 237 246 242 246 253 244 228 208 190 180 177 174 173 171 166 162 161 158 158 154 150 151 152 155 156 153 152 151 152 153 157 160 173 183
216 234 226 232 233 231 234 228 218 222 232 242 250 254 259 249 216 201 193 186 183 180 176 172 168 165 165 163 161 157 154 153 155 157 155 154 155 153 152 150 146 145 146 142
214 220 224 229 220 224 232 229 225 223 228 233 239 245 245 232 217 208 198 193 188 181 175 171 167 166 164 164 161 160 157 155 156 156 156 158 157 151 146 146 143 141 137 127
229 230 229 233 212 229 233 221 226 229 230 231 241 252 245 248 225 211 202 196 186 178 172 168 164 160 159 157 156 153 153 154 154 154 156 158 156 150 149 149 143 139 137 127
220 224 231 229 226 230 221 204 216 222 228 228 234 240 231 190 196 200 189 187 180 172 165 160 159 156 154 155 154 153 156 156 155 156 158 160 157 150 150 148 143 139 133 121
203 218 231 228 236 234 221 182 204 223 227 224 229 229 216 198 234 187 139 158 158 156 152 149 149 148 149 152 156 158 160 159 160 159 159 158 155 153 150 145 140 133 128 121
194 205 222 227 232 238 198 142 187 218 226 16 227 221 207 212 290 104 134 140 143 142 141 142 142 142 145 150 155 156 156 157 156 157 154 152 152 148 144 140 137 135 130 121
209 209 214 225 232 229 132 185 218 310 15 17 348 201 185 149 111 128 136 136 138 138 139 141 139 137 140 148 153 151 153 152 152 152 149 147 147 144 140 138 136 134 134 133
231 246 235 228 231 59 53 304 351 336 328 341 342 20 157 152 139 136 137 137 138 138 138 139 137 135 137 146 153 151 146 147 149 147 144 142 139 133 136 143 143 145 147 146
217 259 256 247 233 265 307 354 342 328 317 319 314 209 173 158 145 138 135 135 136 136 138 139 138 136 136 142 143 139 140 147 150 148 144 144 140 135 131 131 141 149 153 156
254 238 237 241 247 243 197 8 353 345 347 358 42 146 149 144 141 137 136 136 135 134 135 138 136 135 137 137 134 134 141 149 150 147 147 149 143 134 123 108 82 100 81 113
241 246 247 250 288 291 307 358 348 349 13 53 83 103 120 134 138 137 135 133 134 133 133 133 133 134 134 136 133 134 143 150 150 151 154 151 144 137 133 126 102 57 63 63
Height
1520 1517 1513 1511 1512 1512 1513 1514 1514 1512 1509 1509 1506 1506 1505 1509 1511 1513 1517 1520 1522 1526 1528 1530 1532 1534 1536 1538 1540 1542 1544 1547 1550 1552 1554 1556 1559 1561 1563 1565 1567 1569 1571 1573
1518 1515 1510 1513 1515 1516 1515 1515 1513 1510 1509 1509 1506 1505 1504 1507 1509 1511 1514 1517 1520 1524 1526 1528 1530 1532 1534 1535 1538 1540 1542 1544 1547 1550 1552 1554 1557 1559 1561 1563 1565 1567 1569 1571
1511 1510 1512 1515 1516 1517 1514 1514 1512 1513 1509 1507 1507 1506 1502 1504 1507 1510 1512 1515 1518 1521 1523 1525 1528 1530 1531 1533 1535 1537 1539 1542 1545 1547 1550 1552 1554 1556 1558 1560 1562 1564 1566 1568
1509 1509 1514 1514 1513 1513 1515 1509 1512 1512 1513 1508 1511 1513 1502 1500 1503 1506 1509 1512 1515 1518 1521 1523 1525 1528 1529 1531 1533 1535 1537 1539 1542 1544 1547 1549 1551 1553 1555 1557 1560 1561 1564 1565
1508 1508 1512 1513 1510 1511 1509 1510 1511 1511 1511 1512 1508 1514 1502 1498 1500 1501 1506 1509 1512 1516 1519 1521 1523 1526 1528 1530 1532 1533 1535 1537 1539 1542 1544 1546 1549 1551 1553 1555 1556 1558 1560 1562
1503 1507 1507 1506 1506 1509 1510 1512 1512 1510 1507 1521 1512 1517 1509 1495 1498 1499 1503 1508 1511 1514 1517 1520 1522 1524 1527 1529 1530 1531 1533 1535 1537 1539 1541 1543 1546 1548 1550 1552 1554 1555 1557 1558
1508 1505 1505 1505 1506 1509 1510 1514 1521 1523 1520 1517 1509 1514 1506 1495 1497 1500 1502 1506 1509 1512 1516 1518 1521 1523 1525 1527 1528 1530 1531 1533 1535 1537 1539 1541 1543 1545 1547 1549 1551 1552 1554 1555
1508 1506 1500 1501 1501 1503 1506 1505 1519 1527 1521 1511 1512 1511 1497 1495 1498 1501 1503 1505 1508 1511 1514 1517 1520 1522 1524 1526 1527 1528 1530 1531 1533 1535 1537 1539 1541 1543 1545 1546 1548 1549 1551 1552
1497 1499 1493 1496 1497 1498 1504 1504 1495 1506 1511 1516 1507 1502 1493 1493 1496 1499 1501 1505 1508 1511 1513 1516 1519 1521 1523 1525 1526 1528 1529 1530 1532 1533 1535 1537 1539 1540 1542 1544 1545 1546 1547 1549
1490 1498 1493 1496 1499 1499 1497 1495 1502 1508 1522 1523 1512 1506 1499 1492 1492 1496 1499 1503 1506 1510 1513 1516 1518 1520 1523 1524 1526 1527 1528 1529 1530 1532 1533 1535 1536 1538 1539 1541 1542 1543 1544 1545
1488 1496 1495 1495 1497 1497 1502 1502 1500 1500 1502 1515 1516 1505 1485 1488 1490 1493 1497 1502 1505 1509 1512 1515 1517 1520 1522 1523 1525 1526 1527 1528 1529 1530 1532 1533 1534 1536 1537 1538 1540 1541 1542 1543
1488 1491 1492 1490 1486 1487 1489 1491 1497 1507 1510 1507 1507 1500 1483 1487 1490 1493 1496 1501 1504 1508 1511 1514 1516 1519 1521 1523 1524 1525 1527 1527 1528 1529 1530 1532 1533 1534 1535 1537 1538 1539 1540 1540
1487 1492 1502 1499 1496 1494 1491 1489 1489 1492 1498 1502 1506 1498 1484 1487 1490 1493 1496 1500 1503 1507 1510 1513 1515 1517 1520 1522 1523 1525 1526 1527 1527 1528 1530 1531 1532 1533 1534 1535 1536 1537 1537 1538
1488 1487 1490 1490 1484 1480 1489 1488 1488 1491 1496 1497 1496 1489 1483 1484 1487 1490 1494 1498 1502 1505 1508 1511 1514 1516 1518 1520 1522 1524 1525 1526 1527 1528 1529 1530 1531 1532 1533 1533 1534 1535 1536 1536
1487 1486 1483 1477 1473 1475 1478 1481 1484 1488 1485 1488 1485 1483 1480 1480 1484 1488 1492 1496 1500 1503 1506 1509 1512 1515 1517 1519 1521 1523 1524 1525 1527 1528 1529 1530 1530 1531 1532 1532 1533 1534 1534 1535
1487 1485 1482 1482 1476 1477 1480 1477 1479 1481 1481 1481 1480 1480 1475 1479 1483 1487 1490 1494 1497 1500 1504 1507 1510 1513 1515 1517 1520 1521 1523 1524 1526 1527 1528 1529 1530 1530 1531 1532 1532 1533 1533 1533
1484 1487 1487 1481 1475 1479 1484 1475 1475 1477 1476 1477 1479 1476 1475 1478 1482 1485 1488 1490 1494 1497 1501 1505 1508 1510 1513 1516 1518 1520 1522 1523 1525 1526 1527 1528 1529 1530 1531 1531 1532 1532 1532 1533
1489 1487 1483 1478 1483 1494 1472 1463 1466 1469 1470 1471 1472 1473 1476 1479 1482 1484 1486 1488 1491 1495 1499 1502 1506 1509 1512 1514 1516 1519 1521 1522 1524 1525 1527 1528 1528 1529 1530 1530 1531 1531 1532 1532
1486 1488 1482 1479 1482 1478 1468 1466 1467 1469 1470 1468 1471 1473 1476 1479 1481 1482 1485 1487 1490 1494 1497 1500 1504 1507 1510 1512 1515 1517 1520 1521 1523 1524 1526 1527 1528 1528 1529 1530 1530 1530 1531 1531
1483 1486 1484 1480 1483 1481 1466 1463 1467 1469 1473 1468 1470 1472 1475 1478 1476 1478 1484 1486 1489 1492 1495 1498 1502 1505 1508 1510 1513 1516 1518 1520 1521 1522 1524 1525 1526 1527 1528 1528 1529 1529 1530 1530
1481 1483 1481 1479 1479 1468 1461 1466 1469 1477 1472 1470 1471 1472 1475 1476 1477 1481 1483 1485 1488 1491 1494 1497 1500 1503 1506 1508 1511 1514 1516 1518 1519 1520 1522 1523 1524 1525 1526 1527 1527 1528 1529 1530
1470 1471 1476 1474 1476 1472 1466 1467 1468 1470 1473 1472 1472 1474 1476 1478 1479 1481 1483 1485 1487 1490 1493 1496 1499 1501 1504 1507 1509 1511 1513 1515 1517 1518 1519 1521 1522 1524 1524 1525 1526 1527 1528 1528
1468 1465 1461 1464 1466 1469 1470 1471 1473 1474 1474 1474 1474 1475 1477 1478 1479 1481 1483 1485 1488 1490 1492 1495 1498 1500 1503 1505 1508 1509 1511 1513 1515 1516 1518 1519 1520 1521 1522 1524 1524 1525 1526 1528
1469 1472 1469 1468 1466 1470 1471 1472 1473 1474 1474 1474 1475 1476 1477 1478 1480 1481 1483 1485 1488 1490 1492 1494 1497 1499 1501 1504 1506 1507 1509 1511 1513 1514 1516 1517 1518 1519 1521 1522 1523 1524 1525 1526
1470 1471 1468 1469 1469 1471 1472 1473 1474 1474 1474 1474 1475 1476 1477 1478 1480 1482 1483 1485 1487 1489 1491 1493 1495 1497 1500 1502 1504 1505 1507 1508 1511 1512 1514 1515 1516 1518 1519 1520 1521 1523 1524 1525
1471 1471 1470 1468 1471 1472 1473 1474 1474 1474 1474 1474 1475 1476 1478 1479 1480 1482 1483 1485 1488 1489 1491 1493 1494 1496 1498 1500 1502 1503 1505 1507 1509 1511 1512 1513 1515 1516 1517 1518 1519 1520 1522 1523